User: anonymous   Login
Location: Granada
(37.1830°N, 3.6000°W)
Time: 17:19:41
(UTC+01:00)
Language:

Iridium 70 - Orbit

View from above orbital plane
View from above orbital plane
View from above satellite
View from above satellite

Ground track
Ground track

The orbit data is extracted from the following two-line orbital elements,

1 25342U 98032A   14303.45330390  .00000559  00000-0  19255-3 0   205
2 25342 086.3954 265.7466 0002038 101.9222 043.7843 14.34223006861390
Epoch (UTC): 30 October 2014 10:52:45
Eccentricity: 0.0002038
inclination: 86.3954°
perigee height: 776 km
apogee height: 779 km
right ascension of ascending node: 265.7466°
argument of perigee: 101.9222°
revolutions per day: 14.34223006
mean anomaly at epoch: 43.7843°
orbit number at epoch: 86139

The dashed part of the orbit path shows where the satellite is in the earth's shadow,  

DLR